Location: Brno
(49.2000°N, 16.6330°E)
Time: 04:21:03
(UTC+02:00)

Vanguard 3 - Pass Details

Date: 07 August 2021
Orbit: 510 x 3260 km, 33.3° (Epoch: 16 September)

Event Time Altitude Azimuth Distance (km) Brightness Sun altitude
Rises 23:38:52 0° 273° (W) 6,708 12.1 -22.3°
Reaches altitude 10° 23:45:11 10° 258° (WSW) 5,988 11.6 -22.6°
Maximum altitude 23:56:22 19° 222° (SW) 5,436 11.0 -23.2°
Enters shadow 00:02:31 16° 201° (SSW) 5,601 10.9 -23.4°
Drops below altitude 10° 00:07:39 10° 186° (S) 5,975 - -23.7°
Sets 00:14:05 0° 171° (S) 6,680 - -23.9°
